Miscellaneous Local Product
Issued by NWS Hastings, NE

Home | Current Version | Previous Version | Graphics & Text | Print | Product List | Glossary On
Versions: 1 2 3 4 5 6 7 8 9 10 11 12 13 14 15 16 17 18 19 20 21 22 23 24 25 26 27 28 29 30 31 32 33 34 35 36 37 38 39 40 41 42 43 44 45 46 47 48 49 50
496
AXUS43 KGID 242002
MISGRI

GID CWA HOURLY WEATHER ROUNDUP
NATIONAL WEATHER SERVICE HASTINGS NE
200 PM CST FRI FEB 24 2017

NOTE: "FAIR" INDICATES FEW OR NO CLOUDS BELOW 12,000 FEET WITH NO
SIGNIFICANT WEATHER AND/OR OBSTRUCTIONS TO VISIBILITY.

...SOUTH CENTRAL NEBRASKA...

CITY           SKY/WX    TMP DP  RH WIND       PRES   REMARKS
GRAND ISLAND   CLOUDY    22  15  75 N28       29.97R WCI   4
HASTINGS       CLOUDY    24  16  71 N28       29.97R WCI   7
KEARNEY        PTSUNNY   25  14  63 N24G30    29.98R WCI   9
ORD            CLOUDY    23  13  65 N28G35    29.98R WCI   6
YORK           LGT SNOW  23  19  86 N16G24    29.92S WCI  10
AURORA         CLOUDY    24  18  79 N22       29.95S WCI   8
LEXINGTON      CLOUDY    24  14  65 N25       29.99S WCI   8
HOLDREGE       CLOUDY    24  15  70 N18G26    29.97S WCI  10
HEBRON         LGT SNOW  24  20  83 N23G32    29.92R WCI   9

...NEBRASKA PANHANDLE...

CITY           SKY/WX    TMP DP  RH WIND       PRES   REMARKS
CHADRON        CLOUDY    22  15  75 NW3       30.07F
ALLIANCE       CLOUDY    21  16  81 N9        30.01S WCI  11
SCOTTSBLUFF    LGT SNOW  24  17  74 CALM      30.03S
SIDNEY         CLOUDY    23  17  78 N9        30.00S WCI  13

...WESTERN AND NORTH CENTRAL NEBRASKA...

CITY           SKY/WX    TMP DP  RH WIND       PRES   REMARKS
VALENTINE      CLOUDY    22  13  68 N14       30.05F WCI   9
AINSWORTH      CLOUDY    22  17  79 N24       30.03S WCI   6
ONEILL         CLOUDY    25  17  73 N24G30    30.00S WCI   9
BROKEN BOW     MOSUNNY   23  14  68 N23G32    29.99S WCI   7
IMPERIAL       CLOUDY    25  18  74 N18       30.01F WCI  11
NORTH PLATTE   CLOUDY    24  11  57 N17G26    30.03S WCI  11
MCCOOK         CLOUDY    28  19  69 N20       30.00R WCI  15

...EASTERN NEBRASKA...

CITY           SKY/WX    TMP DP  RH WIND       PRES   REMARKS
NORFOLK        CLOUDY    24  14  65 N17G29    29.91S WCI  11
SO SIOUX CITY  CLOUDY    26  17  68 N23       29.89R WCI  11
TEKAMAH        FOG       24  20  84 NW24      29.87R VSB 1   WCI   8
COLUMBUS       PTSUNNY   25  14  63 NW25G33   29.92S WCI   9
ALBION         CLOUDY    25  15  64 N16G31    29.94S WCI  13
OMAHA EPPLEY   SNOW      25  19  78 N24G37    29.84R VSB 1/4 WCI   9
OFFUTT AFB     LGT SNOW  25  21  86 N13       29.84R VSB 1   WCI  13
MILLARD        SNOW      27  23  85 NW16G29   29.86R VSB 1/2 WCI  15
LINCOLN        LGT SNOW  25  21  85 N29G35    29.89R FOG     WCI   8
NEBRASKA CITY  LGT SNOW  26  22  85 N18G26    29.83R VSB 3/4 WCI  13
BEATRICE       LGT SNOW  26  23  88 NW24G35   29.88S WCI  11
FALLS CITY     LGT SNOW  28  25  88 NW20G29   29.81R VSB 1   WCI  15

...NORTHERN KANSAS...

CITY           SKY/WX    TMP DP  RH WIND       PRES   REMARKS
GOODLAND       CLOUDY    28  22  78 N18       29.97S WCI  15
HILL CITY      CLOUDY    33  23  66 N21G31    29.97F WCI  21
PHILLIPSBURG   MOSUNNY   30  21  69 N23G30    29.98F WCI  17
SMITH CENTER   CLOUDY    27  19  74 NW24G31   29.97R WCI  12
HAYS           FLURRIES  32  24  72 N23       29.96S WCI  19
RUSSELL        CLOUDY    30  22  72 N22G31    29.95R WCI  17
CONCORDIA      LGT SNOW  26  23  88 NW25G31   29.92R FOG     WCI  11
SALINA         CLOUDY    32  20  61 N25G32    29.93R WCI  19
TOPEKA         CLOUDY    33  28  81 NW16G28   29.82R WCI  23



USA.gov is the U.S. government's official web portal to all federal, state and local government web resources and services.